Location: Unspecified
(40.7945°N, 111.1337°W)
Time: 02:41:14
(UTC-06:00)

Okean 3 - Pass Details

Date: 29 March 2019
Orbit: 576 x 602 km, 82.5° (Epoch: 20 April)

Event Time Altitude Azimuth Distance (km) Brightness Sun altitude
Exits shadow 04:52:55 27° 137° (SE) 1,159 5.0 -26.0°
Maximum altitude 04:54:32 38° 92° (E) 925 4.8 -25.8°
Drops below altitude 10° 04:58:32 10° 24° (NNE) 1,948 6.8 -25.1°
Sets 05:00:51 0° 17° (NNE) 2,854 7.6 -24.7°
